Tabellarische Ansicht des 30.12.2014


Die einzelnen Werte des Tages

Uhrzeit Temperatur Luftdruck Luftfeuchte Wind Hi-Wind Taupunkt THW Index Wind Chill Heat Index Solar- strahlung Regen

00:00

0.4 C

1031.6 hpa

67 %

9.7 km/h aus 116

20.9 km/h aus SSW

-5.0 C

-3.0 C

-2.7 C

0.1 C

0 W/m

0.00 mm

00:05

0.4 C

1031.6 hpa

67 %

9.7 km/h aus 115

17.7 km/h aus SW

-5.0 C

-3.0 C

-2.7 C

0.1 C

0 W/m

0.00 mm

00:10

0.4 C

1031.6 hpa

66 %

9.7 km/h aus 117

19.3 km/h aus SW

-5.2 C

-3.0 C

-2.7 C

0.1 C

0 W/m

0.00 mm

00:15

0.4 C

1031.4 hpa

66 %

9.7 km/h aus 116

19.3 km/h aus SW

-5.2 C

-3.0 C

-2.7 C

0.1 C

0 W/m

0.00 mm

00:20

0.4 C

1031.4 hpa

66 %

9.7 km/h aus 117

16.1 km/h aus SSW

-5.2 C

-3.0 C

-2.7 C

0.1 C

0 W/m

0.00 mm

00:25

0.4 C

1031.4 hpa

66 %

8.0 km/h aus 117

14.5 km/h aus SW

-5.2 C

-2.6 C

-2.2 C

0.1 C

0 W/m

0.00 mm

00:30

0.4 C

1031.3 hpa

66 %

4.8 km/h aus 117

9.7 km/h aus SSW

-5.2 C

-1.3 C

-1.0 C

0.1 C

0 W/m

0.00 mm

00:35

0.4 C

1031.3 hpa

66 %

4.8 km/h aus 117

9.7 km/h aus SW

-5.2 C

-1.3 C

-1.0 C

0.1 C

0 W/m

0.25 mm

00:40

0.4 C

1031.3 hpa

66 %

4.8 km/h aus 117

9.7 km/h aus SW

-5.2 C

-1.3 C

-1.0 C

0.1 C

0 W/m

0.00 mm

00:45

0.4 C

1031.1 hpa

65 %

4.8 km/h aus 116

11.3 km/h aus SSW

-5.4 C

-1.3 C

-1.0 C

0.1 C

0 W/m

0.00 mm

00:50

0.4 C

1031.1 hpa

65 %

4.8 km/h aus 116

9.7 km/h aus SSW

-5.4 C

-1.3 C

-1.0 C

0.1 C

0 W/m

0.00 mm

00:55

0.4 C

1031.1 hpa

65 %

3.2 km/h aus 117

6.4 km/h aus SSW

-5.4 C

-0.4 C

-0.1 C

0.1 C

0 W/m

0.00 mm

01:00

0.5 C

1031.0 hpa

65 %

6.4 km/h aus 116

11.3 km/h aus SSW

-5.3 C

-1.9 C

-1.6 C

0.2 C

0 W/m

0.00 mm

01:05

0.6 C

1031.0 hpa

65 %

6.4 km/h aus 117

9.7 km/h aus SSW

-5.3 C

-1.9 C

-1.6 C

0.2 C

0 W/m

0.00 mm

01:10

0.6 C

1031.0 hpa

64 %

6.4 km/h aus 118

14.5 km/h aus S

-5.5 C

-1.9 C

-1.6 C

0.2 C

0 W/m

0.00 mm

01:15

0.6 C

1030.8 hpa

64 %

8.0 km/h aus 117

16.1 km/h aus S

-5.4 C

-2.3 C

-2.0 C

0.3 C

0 W/m

0.00 mm

01:20

0.7 C

1030.8 hpa

64 %

6.4 km/h aus 117

14.5 km/h aus S

-5.4 C

-1.7 C

-1.4 C

0.3 C

0 W/m

0.00 mm

01:25

0.8 C

1030.8 hpa

63 %

6.4 km/h aus 115

14.5 km/h aus SW

-5.5 C

-1.6 C

-1.3 C

0.4 C

0 W/m

0.00 mm

01:30

0.8 C

1030.5 hpa

63 %

6.4 km/h aus 117

14.5 km/h aus SSW

-5.4 C

-1.6 C

-1.2 C

0.5 C

0 W/m

0.00 mm

01:35

0.9 C

1030.5 hpa

63 %

9.7 km/h aus 117

17.7 km/h aus SW

-5.3 C

-2.4 C

-2.1 C

0.6 C

0 W/m

0.00 mm

01:40

1.1 C

1030.5 hpa

63 %

8.0 km/h aus 117

16.1 km/h aus SSW

-5.2 C

-1.8 C

-1.5 C

0.7 C

0 W/m

0.00 mm

01:45

1.1 C

1030.4 hpa

63 %

6.4 km/h aus 117

14.5 km/h aus SW

-5.2 C

-1.2 C

-0.9 C

0.8 C

0 W/m

0.00 mm

01:50

1.1 C

1030.4 hpa

63 %

6.4 km/h aus 117

11.3 km/h aus S

-5.2 C

-1.2 C

-0.9 C

0.8 C

0 W/m

0.00 mm

01:55

1.1 C

1030.4 hpa

63 %

3.2 km/h aus 117

8.0 km/h aus S

-5.2 C

0.3 C

0.7 C

0.8 C

0 W/m

0.00 mm

02:00

1.1 C

1030.3 hpa

63 %

6.4 km/h aus 117

11.3 km/h aus SSW

-5.2 C

-1.2 C

-0.9 C

0.8 C

0 W/m

0.00 mm

02:05

1.2 C

1030.3 hpa

63 %

4.8 km/h aus 117

9.7 km/h aus SSW

-5.1 C

-0.5 C

-0.2 C

0.8 C

0 W/m

0.00 mm

02:10

1.2 C

1030.3 hpa

62 %

6.4 km/h aus 117

11.3 km/h aus SSW

-5.3 C

-1.2 C

-0.8 C

0.8 C

0 W/m

0.00 mm

02:15

1.2 C

1030.3 hpa

62 %

6.4 km/h aus 118

19.3 km/h aus SW

-5.3 C

-1.2 C

-0.8 C

0.8 C

0 W/m

0.00 mm

02:20

1.3 C

1030.3 hpa

62 %

3.2 km/h aus 117

6.4 km/h aus WNW

-5.2 C

0.4 C

0.8 C

0.9 C

0 W/m

0.25 mm

02:25

1.3 C

1030.3 hpa

62 %

4.8 km/h aus 117

16.1 km/h aus WSW

-5.2 C

-0.4 C

0.0 C

0.9 C

0 W/m

0.00 mm

02:30

1.3 C

1030.3 hpa

62 %

9.7 km/h aus 116

14.5 km/h aus WSW

-5.2 C

-2.0 C

-1.6 C

0.9 C

0 W/m

0.00 mm

02:35

1.3 C

1030.3 hpa

61 %

11.3 km/h aus 115

19.3 km/h aus SW

-5.4 C

-2.4 C

-2.0 C

0.9 C

0 W/m

0.00 mm

02:40

1.3 C

1030.3 hpa

61 %

6.4 km/h aus 116

16.1 km/h aus SSW

-5.4 C

-1.1 C

-0.7 C

0.9 C

0 W/m

0.00 mm

02:45

1.3 C

1030.3 hpa

61 %

6.4 km/h aus 117

9.7 km/h aus W

-5.4 C

-1.1 C

-0.7 C

0.9 C

0 W/m

0.00 mm

02:50

1.4 C

1030.3 hpa

61 %

6.4 km/h aus 117

16.1 km/h aus WSW

-5.3 C

-0.9 C

-0.6 C

1.0 C

0 W/m

0.00 mm

02:55

1.4 C

1030.3 hpa

61 %

6.4 km/h aus 117

11.3 km/h aus SW

-5.3 C

-0.9 C

-0.5 C

1.1 C

0 W/m

0.00 mm

03:00

1.5 C

1030.3 hpa

61 %

4.8 km/h aus 116

11.3 km/h aus WSW

-5.2 C

-0.2 C

0.2 C

1.1 C

0 W/m

0.00 mm

03:05

1.5 C

1030.3 hpa

61 %

6.4 km/h aus 117

11.3 km/h aus WSW

-5.2 C

-0.8 C

-0.4 C

1.1 C

0 W/m

0.00 mm

03:10

1.6 C

1030.3 hpa

60 %

4.8 km/h aus 117

9.7 km/h aus WSW

-5.4 C

-0.1 C

0.3 C

1.2 C

0 W/m

0.00 mm

03:15

1.6 C

1030.2 hpa

60 %

8.0 km/h aus 118

11.3 km/h aus WSW

-5.4 C

-1.3 C

-0.9 C

1.2 C

0 W/m

0.00 mm

03:20

1.6 C

1030.2 hpa

60 %

6.4 km/h aus 117

16.1 km/h aus SW

-5.3 C

-0.7 C

-0.3 C

1.2 C

0 W/m

0.25 mm

03:25

1.7 C

1030.2 hpa

60 %

6.4 km/h aus 117

9.7 km/h aus WSW

-5.3 C

-0.7 C

-0.3 C

1.3 C

0 W/m

0.00 mm

03:30

1.7 C

1030.1 hpa

60 %

6.4 km/h aus 116

14.5 km/h aus WSW

-5.2 C

-0.6 C

-0.2 C

1.3 C

0 W/m

0.00 mm

03:35

1.7 C

1030.1 hpa

60 %

8.0 km/h aus 117

16.1 km/h aus WSW

-5.2 C

-1.1 C

-0.7 C

1.3 C

0 W/m

0.00 mm

03:40

1.8 C

1030.1 hpa

60 %

6.4 km/h aus 117

11.3 km/h aus W

-5.2 C

-0.5 C

-0.1 C

1.4 C

0 W/m

0.00 mm

03:45

1.8 C

1030.1 hpa

59 %

8.0 km/h aus 117

17.7 km/h aus W

-5.3 C

-1.0 C

-0.6 C

1.4 C

0 W/m

0.00 mm

03:50

1.9 C

1030.1 hpa

59 %

9.7 km/h aus 117

17.7 km/h aus W

-5.2 C

-1.3 C

-0.9 C

1.5 C

0 W/m

0.00 mm

03:55

2.0 C

1030.1 hpa

59 %

6.4 km/h aus 117

11.3 km/h aus W

-5.2 C

-0.3 C

0.1 C

1.6 C

0 W/m

0.00 mm

04:00

2.1 C

1030.0 hpa

59 %

9.7 km/h aus 117

16.1 km/h aus W

-5.1 C

-1.2 C

-0.8 C

1.6 C

0 W/m

0.00 mm

04:05

2.1 C

1030.0 hpa

58 %

11.3 km/h aus 117

20.9 km/h aus WSW

-5.3 C

-1.5 C

-1.1 C

1.7 C

0 W/m

0.00 mm

04:10

2.2 C

1030.0 hpa

58 %

8.0 km/h aus 116

14.5 km/h aus W

-5.3 C

-0.6 C

-0.2 C

1.7 C

0 W/m

0.00 mm

04:15

2.2 C

1030.0 hpa

58 %

12.9 km/h aus 117

17.7 km/h aus W

-5.2 C

-1.7 C

-1.3 C

1.8 C

0 W/m

0.00 mm

04:20

2.2 C

1030.0 hpa

58 %

9.7 km/h aus 117

16.1 km/h aus NW

-5.2 C

-1.0 C

-0.6 C

1.8 C

0 W/m

0.00 mm

04:25

2.3 C

1030.0 hpa

58 %

9.7 km/h aus 117

17.7 km/h aus W

-5.1 C

-0.9 C

-0.5 C

1.8 C

0 W/m

0.00 mm

04:30

2.3 C

1030.0 hpa

58 %

9.7 km/h aus 116

20.9 km/h aus WSW

-5.1 C

-0.9 C

-0.4 C

1.9 C

0 W/m

0.00 mm

04:35

2.4 C

1030.0 hpa

58 %

9.7 km/h aus 116

19.3 km/h aus WSW

-5.0 C

-0.8 C

-0.3 C

1.9 C

0 W/m

0.00 mm

04:40

2.4 C

1030.0 hpa

57 %

9.7 km/h aus 117

19.3 km/h aus WSW

-5.2 C

-0.8 C

-0.3 C

1.9 C

0 W/m

0.00 mm

04:45

2.5 C

1029.8 hpa

57 %

12.9 km/h aus 116

20.9 km/h aus WNW

-5.2 C

-1.4 C

-0.9 C

2.0 C

0 W/m

0.00 mm

04:50

2.6 C

1029.8 hpa

57 %

12.9 km/h aus 117

19.3 km/h aus WSW

-5.1 C

-1.4 C

-0.9 C

2.1 C

0 W/m

0.00 mm

04:55

2.6 C

1029.8 hpa

57 %

11.3 km/h aus 116

19.3 km/h aus WSW

-5.1 C

-1.1 C

-0.6 C

2.1 C

0 W/m

0.00 mm

05:00

2.6 C

1029.8 hpa

57 %

12.9 km/h aus 117

19.3 km/h aus WSW

-5.1 C

-1.3 C

-0.8 C

2.1 C

0 W/m

0.00 mm

05:05

2.7 C

1029.8 hpa

57 %

11.3 km/h aus 117

20.9 km/h aus W

-5.0 C

-0.9 C

-0.4 C

2.2 C

0 W/m

0.00 mm

05:10

2.7 C

1029.8 hpa

57 %

9.7 km/h aus 117

17.7 km/h aus WSW

-5.0 C

-0.6 C

-0.1 C

2.2 C

0 W/m

0.00 mm

05:15

2.7 C

1029.8 hpa

57 %

11.3 km/h aus 117

24.1 km/h aus W

-5.0 C

-0.9 C

-0.4 C

2.2 C

0 W/m

0.00 mm

05:20

2.7 C

1029.8 hpa

56 %

11.3 km/h aus 117

19.3 km/h aus WNW

-5.2 C

-0.8 C

-0.3 C

2.2 C

0 W/m

0.00 mm

05:25

2.7 C

1029.8 hpa

56 %

11.3 km/h aus 117

22.5 km/h aus W

-5.2 C

-0.8 C

-0.3 C

2.2 C

0 W/m

0.00 mm

05:30

2.8 C

1029.8 hpa

56 %

8.0 km/h aus 117

19.3 km/h aus WNW

-5.1 C

0.0 C

0.5 C

2.3 C

0 W/m

0.00 mm

05:35

2.8 C

1029.8 hpa

56 %

6.4 km/h aus 115

19.3 km/h aus WNW

-5.1 C

0.6 C

1.1 C

2.3 C

0 W/m

0.00 mm

05:40

2.8 C

1029.8 hpa

56 %

6.4 km/h aus 116

17.7 km/h aus W

-5.1 C

0.6 C

1.1 C

2.3 C

0 W/m

0.00 mm

05:45

2.8 C

1029.8 hpa

56 %

8.0 km/h aus 117

14.5 km/h aus NW

-5.1 C

0.0 C

0.5 C

2.3 C

0 W/m

0.00 mm

05:50

2.8 C

1029.8 hpa

56 %

8.0 km/h aus 117

17.7 km/h aus WNW

-5.1 C

0.0 C

0.5 C

2.3 C

0 W/m

0.00 mm

05:55

2.8 C

1029.8 hpa

56 %

6.4 km/h aus 117

16.1 km/h aus WSW

-5.1 C

0.6 C

1.1 C

2.3 C

0 W/m

0.00 mm

06:00

2.8 C

1029.8 hpa

56 %

8.0 km/h aus 117

16.1 km/h aus WNW

-5.1 C

0.0 C

0.5 C

2.3 C

0 W/m

0.00 mm

06:05

2.8 C

1029.8 hpa

56 %

6.4 km/h aus 117

9.7 km/h aus WNW

-5.1 C

0.6 C

1.1 C

2.3 C

0 W/m

0.00 mm

06:10

2.8 C

1029.8 hpa

56 %

6.4 km/h aus 117

11.3 km/h aus WNW

-5.1 C

0.6 C

1.1 C

2.3 C

0 W/m

0.00 mm

06:15

2.8 C

1029.8 hpa

56 %

8.0 km/h aus 117

19.3 km/h aus WSW

-5.1 C

0.0 C

0.5 C

2.3 C

0 W/m

0.00 mm

06:20

2.8 C

1029.8 hpa

56 %

9.7 km/h aus 117

17.7 km/h aus W

-5.1 C

-0.4 C

0.1 C

2.3 C

0 W/m

0.00 mm

06:25

2.8 C

1029.8 hpa

56 %

8.0 km/h aus 115

16.1 km/h aus WSW

-5.1 C

0.1 C

0.6 C

2.3 C

0 W/m

0.00 mm

06:30

2.8 C

1029.8 hpa

56 %

9.7 km/h aus 118

17.7 km/h aus WSW

-5.1 C

-0.3 C

0.2 C

2.3 C

0 W/m

0.00 mm

06:35

2.8 C

1029.8 hpa

55 %

8.0 km/h aus 117

16.1 km/h aus W

-5.3 C

0.1 C

0.6 C

2.3 C

0 W/m

0.00 mm

06:40

2.8 C

1029.8 hpa

55 %

4.8 km/h aus 117

12.9 km/h aus W

-5.3 C

1.2 C

1.7 C

2.3 C

0 W/m

0.00 mm

06:45

2.8 C

1029.8 hpa

55 %

6.4 km/h aus 117

16.1 km/h aus WSW

-5.3 C

0.6 C

1.1 C

2.3 C

0 W/m

0.00 mm

06:50

2.9 C

1029.8 hpa

55 %

9.7 km/h aus 117

16.1 km/h aus WSW

-5.3 C

-0.3 C

0.2 C

2.4 C

0 W/m

0.00 mm

06:55

2.9 C

1029.8 hpa

55 %

9.7 km/h aus 117

17.7 km/h aus WSW

-5.3 C

-0.3 C

0.2 C

2.4 C

0 W/m

0.00 mm

07:00

2.9 C

1029.7 hpa

55 %

8.0 km/h aus 117

16.1 km/h aus WSW

-5.3 C

0.2 C

0.7 C

2.4 C

0 W/m

0.00 mm

07:05

2.9 C

1029.7 hpa

55 %

11.3 km/h aus 115

20.9 km/h aus WSW

-5.2 C

-0.6 C

-0.1 C

2.4 C

0 W/m

0.00 mm

07:10

2.9 C

1029.7 hpa

55 %

9.7 km/h aus 117

17.7 km/h aus W

-5.2 C

-0.2 C

0.3 C

2.4 C

0 W/m

0.00 mm

07:15

2.9 C

1029.7 hpa

55 %

9.7 km/h aus 116

16.1 km/h aus WSW

-5.2 C

-0.2 C

0.3 C

2.4 C

0 W/m

0.00 mm

07:20

3.0 C

1029.7 hpa

55 %

9.7 km/h aus 116

19.3 km/h aus W

-5.2 C

-0.1 C

0.4 C

2.5 C

0 W/m

0.00 mm

07:25

3.0 C

1029.7 hpa

55 %

11.3 km/h aus 117

17.7 km/h aus WSW

-5.2 C

-0.5 C

0.0 C

2.5 C

0 W/m

0.00 mm

07:30

3.0 C

1029.8 hpa

55 %

8.0 km/h aus 117

16.1 km/h aus WSW

-5.2 C

0.3 C

0.8 C

2.5 C

0 W/m

0.00 mm

07:35

3.0 C

1029.8 hpa

58 %

9.7 km/h aus 118

16.1 km/h aus W

-4.5 C

-0.1 C

0.4 C

2.6 C

0 W/m

0.00 mm

07:40

3.0 C

1029.8 hpa

55 %

12.9 km/h aus 117

20.9 km/h aus W

-5.2 C

-0.8 C

-0.3 C

2.5 C

0 W/m

0.00 mm

07:45

3.0 C

1029.8 hpa

55 %

8.0 km/h aus 117

17.7 km/h aus W

-5.2 C

0.3 C

0.8 C

2.5 C

0 W/m

0.00 mm

07:50

3.0 C

1029.8 hpa

55 %

8.0 km/h aus 117

20.9 km/h aus W

-5.2 C

0.3 C

0.8 C

2.5 C

0 W/m

0.00 mm

07:55

3.1 C

1029.8 hpa

55 %

9.7 km/h aus 117

19.3 km/h aus NW

-5.1 C

-0.1 C

0.4 C

2.6 C

0 W/m

0.00 mm

08:00

3.1 C

1029.8 hpa

55 %

8.0 km/h aus 117

16.1 km/h aus W

-5.1 C

0.3 C

0.8 C

2.6 C

0 W/m

0.00 mm

08:05

3.1 C

1029.8 hpa

55 %

6.4 km/h aus 116

11.3 km/h aus W

-5.1 C

0.8 C

1.3 C

2.6 C

0 W/m

0.00 mm

08:10

3.1 C

1029.8 hpa

55 %

8.0 km/h aus 117

16.1 km/h aus W

-5.1 C

0.3 C

0.8 C

2.6 C

0 W/m

0.00 mm

08:15

3.1 C

1029.9 hpa

54 %

8.0 km/h aus 117

17.7 km/h aus WSW

-5.3 C

0.4 C

0.9 C

2.6 C

0 W/m

0.00 mm

08:20

3.1 C

1029.9 hpa

54 %

6.4 km/h aus 116

12.9 km/h aus WNW

-5.3 C

0.9 C

1.4 C

2.6 C

0 W/m

0.00 mm

08:25

3.1 C

1029.9 hpa

54 %

6.4 km/h aus 117

16.1 km/h aus WNW

-5.3 C

0.9 C

1.4 C

2.6 C

0 W/m

0.00 mm

08:30

3.1 C

1030.0 hpa

54 %

8.0 km/h aus 117

20.9 km/h aus WNW

-5.3 C

0.4 C

0.9 C

2.6 C

0 W/m

0.00 mm

08:35

3.2 C

1030.0 hpa

54 %

6.4 km/h aus 118

11.3 km/h aus WNW

-5.3 C

1.0 C

1.5 C

2.7 C

1 W/m

0.00 mm

08:40

3.2 C

1030.0 hpa

54 %

6.4 km/h aus 117

11.3 km/h aus WSW

-5.3 C

1.0 C

1.5 C

2.7 C

5 W/m

0.00 mm

08:45

3.2 C

1030.2 hpa

54 %

6.4 km/h aus 117

14.5 km/h aus WSW

-5.3 C

1.0 C

1.5 C

2.7 C

6 W/m

0.00 mm

08:50

3.2 C

1030.2 hpa

54 %

6.4 km/h aus 117

17.7 km/h aus WSW

-5.3 C

1.0 C

1.5 C

2.7 C

7 W/m

0.00 mm

08:55

3.2 C

1030.2 hpa

54 %

9.7 km/h aus 117

20.9 km/h aus W

-5.2 C

0.1 C

0.6 C

2.7 C

10 W/m

0.00 mm

09:00

3.3 C

1030.2 hpa

54 %

8.0 km/h aus 117

17.7 km/h aus WSW

-5.2 C

0.6 C

1.1 C

2.8 C

14 W/m

0.00 mm

09:05

3.3 C

1030.2 hpa

54 %

9.7 km/h aus 116

20.9 km/h aus W

-5.1 C

0.3 C

0.8 C

2.8 C

14 W/m

0.00 mm

09:10

3.3 C

1030.2 hpa

54 %

9.7 km/h aus 117

19.3 km/h aus W

-5.1 C

0.3 C

0.8 C

2.8 C

20 W/m

0.00 mm

09:15

3.4 C

1030.3 hpa

54 %

8.0 km/h aus 116

17.7 km/h aus W

-5.1 C

0.7 C

1.2 C

2.9 C

19 W/m

0.00 mm

09:20

3.4 C

1030.3 hpa

54 %

8.0 km/h aus 117

17.7 km/h aus WSW

-5.1 C

0.7 C

1.2 C

2.9 C

21 W/m

0.00 mm

09:25

3.4 C

1030.3 hpa

54 %

8.0 km/h aus 116

17.7 km/h aus WSW

-5.1 C

0.7 C

1.2 C

2.9 C

27 W/m

0.00 mm

09:30

3.4 C

1030.2 hpa

53 %

6.4 km/h aus 116

11.3 km/h aus W

-5.2 C

1.3 C

1.8 C

2.9 C

33 W/m

0.00 mm

09:35

3.4 C

1030.2 hpa

53 %

8.0 km/h aus 117

16.1 km/h aus W

-5.2 C

0.8 C

1.3 C

2.9 C

32 W/m

0.00 mm

09:40

3.4 C

1030.2 hpa

53 %

6.4 km/h aus 118

16.1 km/h aus W

-5.2 C

1.3 C

1.8 C

2.9 C

26 W/m

0.00 mm

09:45

3.4 C

1030.2 hpa

53 %

8.0 km/h aus 116

17.7 km/h aus W

-5.2 C

0.8 C

1.3 C

2.9 C

21 W/m

0.00 mm

09:50

3.5 C

1030.2 hpa

53 %

6.4 km/h aus 117

14.5 km/h aus WSW

-5.2 C

1.4 C

1.9 C

3.0 C

19 W/m

0.00 mm

09:55

3.4 C

1030.2 hpa

53 %

6.4 km/h aus 116

14.5 km/h aus WNW

-5.2 C

1.3 C

1.8 C

2.9 C

24 W/m

0.00 mm

10:00

3.4 C

1030.3 hpa

53 %

4.8 km/h aus 116

12.9 km/h aus W

-5.2 C

1.9 C

2.4 C

2.9 C

34 W/m

0.00 mm

10:05

3.5 C

1030.3 hpa

53 %

8.0 km/h aus 117

16.1 km/h aus NW

-5.2 C

0.9 C

1.4 C

3.0 C

43 W/m

0.00 mm

10:10

3.5 C

1030.3 hpa

53 %

6.4 km/h aus 117

14.5 km/h aus W

-5.2 C

1.4 C

1.9 C

3.0 C

35 W/m

0.00 mm

10:15

3.5 C

1030.2 hpa

53 %

8.0 km/h aus 117

16.1 km/h aus W

-5.2 C

0.9 C

1.4 C

3.0 C

42 W/m

0.00 mm

10:20

3.5 C

1030.2 hpa

53 %

8.0 km/h aus 117

16.1 km/h aus W

-5.2 C

0.9 C

1.4 C

3.0 C

46 W/m

0.00 mm

10:25

3.5 C

1030.2 hpa

53 %

8.0 km/h aus 117

16.1 km/h aus WNW

-5.2 C

0.9 C

1.4 C

3.0 C

50 W/m

0.00 mm

10:30

3.5 C

1030.3 hpa

53 %

9.7 km/h aus 117

17.7 km/h aus WSW

-5.2 C

0.4 C

0.9 C

3.0 C

53 W/m

0.00 mm

10:35

3.5 C

1030.3 hpa

53 %

6.4 km/h aus 117

16.1 km/h aus W

-5.2 C

1.4 C

1.9 C

3.0 C

61 W/m

0.00 mm

10:40

3.5 C

1030.3 hpa

53 %

3.2 km/h aus 116

8.0 km/h aus WNW

-5.2 C

2.8 C

3.3 C

3.0 C

57 W/m

0.00 mm

10:45

3.6 C

1030.3 hpa

53 %

6.4 km/h aus 117

14.5 km/h aus W

-5.1 C

1.4 C

1.9 C

3.1 C

59 W/m

0.00 mm

10:50

3.6 C

1030.3 hpa

53 %

4.8 km/h aus 116

14.5 km/h aus WSW

-5.1 C

2.1 C

2.6 C

3.1 C

55 W/m

0.00 mm

10:55

3.6 C

1030.3 hpa

53 %

6.4 km/h aus 116

14.5 km/h aus WNW

-5.1 C

1.5 C

2.0 C

3.1 C

53 W/m

0.00 mm

11:00

3.6 C

1030.3 hpa

53 %

4.8 km/h aus 117

9.7 km/h aus W

-5.1 C

2.1 C

2.6 C

3.1 C

66 W/m

0.00 mm

11:05

3.7 C

1030.3 hpa

53 %

6.4 km/h aus 117

16.1 km/h aus W

-5.0 C

1.6 C

2.1 C

3.2 C

58 W/m

0.00 mm

11:10

3.7 C

1030.3 hpa

53 %

4.8 km/h aus 116

11.3 km/h aus WNW

-5.0 C

2.2 C

2.7 C

3.2 C

52 W/m

0.00 mm

11:15

3.7 C

1030.3 hpa

53 %

6.4 km/h aus 116

16.1 km/h aus W

-5.0 C

1.6 C

2.1 C

3.2 C

46 W/m

0.00 mm

11:20

3.7 C

1030.3 hpa

53 %

6.4 km/h aus 117

11.3 km/h aus WNW

-5.0 C

1.6 C

2.1 C

3.2 C

53 W/m

0.00 mm

11:25

3.7 C

1030.3 hpa

53 %

6.4 km/h aus 116

12.9 km/h aus W

-5.0 C

1.6 C

2.1 C

3.2 C

59 W/m

0.00 mm

11:30

3.7 C

1030.3 hpa

53 %

6.4 km/h aus 115

14.5 km/h aus WSW

-5.0 C

1.6 C

2.1 C

3.2 C

61 W/m

0.00 mm

11:35

3.7 C

1030.3 hpa

53 %

8.0 km/h aus 117

17.7 km/h aus WNW

-5.0 C

1.1 C

1.6 C

3.2 C

63 W/m

0.00 mm

11:40

3.8 C

1030.3 hpa

53 %

6.4 km/h aus 117

11.3 km/h aus W

-4.9 C

1.7 C

2.2 C

3.3 C

61 W/m

0.00 mm

11:45

3.8 C

1030.1 hpa

53 %

6.4 km/h aus 117

17.7 km/h aus WSW

-4.9 C

1.7 C

2.2 C

3.3 C

70 W/m

0.00 mm

11:50

3.8 C

1030.1 hpa

53 %

6.4 km/h aus 118

14.5 km/h aus W

-4.9 C

1.7 C

2.2 C

3.3 C

75 W/m

0.00 mm

11:55

3.8 C

1030.1 hpa

53 %

8.0 km/h aus 116

19.3 km/h aus WSW

-4.9 C

1.3 C

1.8 C

3.3 C

81 W/m

0.00 mm

12:00

3.9 C

1029.9 hpa

53 %

8.0 km/h aus 116

16.1 km/h aus W

-4.8 C

1.3 C

1.8 C

3.4 C

95 W/m

0.00 mm

12:05

3.9 C

1029.9 hpa

53 %

11.3 km/h aus 117

20.9 km/h aus W

-4.8 C

0.6 C

1.2 C

3.4 C

94 W/m

0.00 mm

12:10

3.9 C

1029.9 hpa

53 %

9.7 km/h aus 117

17.7 km/h aus W

-4.8 C

0.9 C

1.5 C

3.4 C

89 W/m

0.00 mm

12:15

4.0 C

1029.8 hpa

53 %

9.7 km/h aus 117

17.7 km/h aus WSW

-4.7 C

1.0 C

1.6 C

3.4 C

86 W/m

0.00 mm

12:20

4.0 C

1029.8 hpa

53 %

9.7 km/h aus 116

20.9 km/h aus W

-4.7 C

1.0 C

1.6 C

3.4 C

97 W/m

0.00 mm

12:25

4.1 C

1029.8 hpa

53 %

11.3 km/h aus 117

20.9 km/h aus WSW

-4.7 C

0.7 C

1.3 C

3.5 C

87 W/m

0.00 mm

12:30

4.1 C

1029.8 hpa

53 %

9.7 km/h aus 116

17.7 km/h aus W

-4.7 C

1.1 C

1.6 C

3.5 C

83 W/m

0.00 mm

12:35

4.1 C

1029.8 hpa

53 %

8.0 km/h aus 114

14.5 km/h aus WSW

-4.6 C

1.6 C

2.1 C

3.6 C

82 W/m

0.00 mm

12:40

4.2 C

1029.8 hpa

53 %

8.0 km/h aus 117

16.1 km/h aus WSW

-4.6 C

1.6 C

2.2 C

3.6 C

80 W/m

0.00 mm

12:45

4.2 C

1029.7 hpa

53 %

9.7 km/h aus 117

19.3 km/h aus W

-4.6 C

1.2 C

1.8 C

3.6 C

77 W/m

0.00 mm

12:50

4.2 C

1029.7 hpa

53 %

9.7 km/h aus 118

16.1 km/h aus W

-4.5 C

1.3 C

1.8 C

3.7 C

79 W/m

0.00 mm

12:55

4.2 C

1029.7 hpa

53 %

8.0 km/h aus 117

20.9 km/h aus W

-4.5 C

1.7 C

2.2 C

3.7 C

88 W/m

0.00 mm

13:00

4.2 C

1029.7 hpa

53 %

9.7 km/h aus 117

19.3 km/h aus W

-4.5 C

1.3 C

1.8 C

3.7 C

94 W/m

0.00 mm

13:05

4.3 C

1029.7 hpa

53 %

8.0 km/h aus 117

14.5 km/h aus WSW

-4.5 C

1.7 C

2.3 C

3.7 C

96 W/m

0.00 mm

13:10

4.3 C

1029.7 hpa

53 %

6.4 km/h aus 117

14.5 km/h aus WNW

-4.4 C

2.3 C

2.8 C

3.8 C

90 W/m

0.00 mm

13:15

4.3 C

1029.5 hpa

53 %

8.0 km/h aus 117

17.7 km/h aus W

-4.4 C

1.8 C

2.3 C

3.8 C

95 W/m

0.00 mm

13:20

4.3 C

1029.5 hpa

53 %

8.0 km/h aus 117

16.1 km/h aus WNW

-4.4 C

1.8 C

2.3 C

3.8 C

116 W/m

0.00 mm

13:25

4.4 C

1029.5 hpa

54 %

11.3 km/h aus 117

17.7 km/h aus WNW

-4.1 C

1.2 C

1.7 C

3.9 C

117 W/m

0.00 mm

13:30

4.6 C

1029.5 hpa

54 %

4.8 km/h aus 117

9.7 km/h aus WNW

-4.0 C

3.1 C

3.7 C

4.0 C

114 W/m

0.00 mm

13:35

4.7 C

1029.5 hpa

55 %

4.8 km/h aus 117

11.3 km/h aus W

-3.6 C

3.2 C

3.8 C

4.1 C

90 W/m

0.00 mm

13:40

4.7 C

1029.5 hpa

56 %

8.0 km/h aus 117

12.9 km/h aus WSW

-3.3 C

2.3 C

2.8 C

4.2 C

73 W/m

0.00 mm

13:45

4.7 C

1029.5 hpa

56 %

9.7 km/h aus 117

17.7 km/h aus W

-3.3 C

1.8 C

2.4 C

4.2 C

51 W/m

0.00 mm

13:50

4.8 C

1029.5 hpa

57 %

8.0 km/h aus 117

17.7 km/h aus WSW

-3.0 C

2.4 C

2.9 C

4.3 C

61 W/m

0.00 mm

13:55

4.8 C

1029.5 hpa

57 %

12.9 km/h aus 118

22.5 km/h aus W

-3.0 C

1.3 C

1.8 C

4.3 C

53 W/m

0.00 mm

14:00

4.7 C

1029.5 hpa

58 %

8.0 km/h aus 117

16.1 km/h aus WSW

-2.8 C

2.3 C

2.8 C

4.2 C

56 W/m

0.00 mm

14:05

4.7 C

1029.5 hpa

58 %

11.3 km/h aus 117

19.3 km/h aus W

-2.8 C

1.6 C

2.1 C

4.2 C

56 W/m

0.00 mm

14:10

4.7 C

1029.5 hpa

59 %

9.7 km/h aus 117

19.3 km/h aus WSW

-2.6 C

1.9 C

2.4 C

4.3 C

65 W/m

0.00 mm

14:15

4.7 C

1029.5 hpa

59 %

9.7 km/h aus 117

19.3 km/h aus WSW

-2.6 C

1.9 C

2.4 C

4.3 C

65 W/m

0.00 mm

14:20

4.7 C

1029.5 hpa

60 %

6.4 km/h aus 117

16.1 km/h aus W

-2.4 C

2.8 C

3.3 C

4.3 C

56 W/m

0.00 mm

14:25

4.7 C

1029.5 hpa

60 %

8.0 km/h aus 117

16.1 km/h aus W

-2.4 C

2.4 C

2.8 C

4.3 C

46 W/m

0.00 mm

14:30

4.7 C

1029.4 hpa

60 %

8.0 km/h aus 116

14.5 km/h aus W

-2.4 C

2.4 C

2.8 C

4.3 C

39 W/m

0.00 mm

14:35

4.7 C

1029.4 hpa

61 %

6.4 km/h aus 116

11.3 km/h aus W

-2.2 C

2.8 C

3.3 C

4.3 C

36 W/m

0.00 mm

14:40

4.7 C

1029.4 hpa

61 %

8.0 km/h aus 117

16.1 km/h aus W

-2.2 C

2.3 C

2.7 C

4.2 C

38 W/m

0.00 mm

14:45

4.7 C

1029.3 hpa

62 %

9.7 km/h aus 117

16.1 km/h aus W

-2.0 C

1.9 C

2.3 C

4.2 C

39 W/m

0.00 mm

14:50

4.7 C

1029.3 hpa

62 %

9.7 km/h aus 117

17.7 km/h aus W

-2.0 C

1.9 C

2.3 C

4.2 C

40 W/m

0.00 mm

14:55

4.7 C

1029.3 hpa

63 %

9.7 km/h aus 115

19.3 km/h aus W

-1.8 C

1.9 C

2.3 C

4.3 C

40 W/m

0.00 mm

15:00

4.7 C

1029.3 hpa

63 %

9.7 km/h aus 118

16.1 km/h aus W

-1.8 C

1.9 C

2.3 C

4.3 C

39 W/m

0.00 mm

15:05

4.6 C

1029.3 hpa

63 %

6.4 km/h aus 117

11.3 km/h aus WNW

-1.8 C

2.8 C

3.2 C

4.2 C

30 W/m

0.00 mm

15:10

4.6 C

1029.3 hpa

64 %

8.0 km/h aus 116

16.1 km/h aus W

-1.6 C

2.3 C

2.7 C

4.2 C

26 W/m

0.00 mm

15:15

4.6 C

1029.3 hpa

64 %

9.7 km/h aus 116

19.3 km/h aus W

-1.6 C

1.9 C

2.3 C

4.2 C

24 W/m

0.00 mm

15:20

4.6 C

1029.3 hpa

64 %

9.7 km/h aus 116

17.7 km/h aus WSW

-1.7 C

1.8 C

2.2 C

4.2 C

25 W/m

0.00 mm

15:25

4.6 C

1029.3 hpa

64 %

8.0 km/h aus 117

14.5 km/h aus WSW

-1.7 C

2.2 C

2.6 C

4.2 C

21 W/m

0.00 mm

15:30

4.6 C

1029.4 hpa

65 %

8.0 km/h aus 117

14.5 km/h aus W

-1.5 C

2.2 C

2.6 C

4.2 C

18 W/m

0.00 mm

15:35

4.5 C

1029.4 hpa

65 %

9.7 km/h aus 116

20.9 km/h aus W

-1.5 C

1.8 C

2.2 C

4.1 C

14 W/m

0.00 mm

15:40

4.5 C

1029.4 hpa

65 %

9.7 km/h aus 117

16.1 km/h aus WSW

-1.5 C

1.8 C

2.2 C

4.1 C

12 W/m

0.00 mm

15:45

4.5 C

1029.7 hpa

66 %

6.4 km/h aus 117

11.3 km/h aus W

-1.3 C

2.6 C

3.0 C

4.1 C

12 W/m

0.00 mm

15:50

4.5 C

1029.7 hpa

66 %

9.7 km/h aus 117

16.1 km/h aus W

-1.3 C

1.8 C

2.2 C

4.1 C

10 W/m

0.00 mm

15:55

4.4 C

1029.7 hpa

66 %

6.4 km/h aus 117

11.3 km/h aus WSW

-1.4 C

2.6 C

2.9 C

4.1 C

8 W/m

0.00 mm

16:00

4.4 C

1029.6 hpa

67 %

8.0 km/h aus 117

17.7 km/h aus W

-1.2 C

2.1 C

2.5 C

4.1 C

7 W/m

0.00 mm

16:05

4.4 C

1029.6 hpa

67 %

4.8 km/h aus 117

9.7 km/h aus W

-1.2 C

3.2 C

3.6 C

4.1 C

5 W/m

0.00 mm

16:10

4.4 C

1029.6 hpa

67 %

6.4 km/h aus 116

11.3 km/h aus W

-1.2 C

2.5 C

2.9 C

4.0 C

2 W/m

0.00 mm

16:15

4.3 C

1029.7 hpa

67 %

8.0 km/h aus 117

12.9 km/h aus WSW

-1.3 C

1.9 C

2.3 C

3.9 C

0 W/m

0.00 mm

16:20

4.3 C

1029.7 hpa

67 %

8.0 km/h aus 115

14.5 km/h aus W

-1.3 C

1.9 C

2.3 C

3.9 C

0 W/m

0.00 mm

16:25

4.3 C

1029.7 hpa

67 %

9.7 km/h aus 117

16.1 km/h aus W

-1.3 C

1.5 C

1.9 C

3.9 C

0 W/m

0.00 mm

16:30

4.3 C

1029.4 hpa

67 %

6.4 km/h aus 116

14.5 km/h aus WSW

-1.3 C

2.4 C

2.8 C

3.9 C

0 W/m

0.00 mm

16:35

4.2 C

1029.4 hpa

68 %

6.4 km/h aus 116

11.3 km/h aus WSW

-1.2 C

2.4 C

2.7 C

3.9 C

0 W/m

0.00 mm

16:40

4.2 C

1029.4 hpa

68 %

8.0 km/h aus 117

14.5 km/h aus W

-1.2 C

1.9 C

2.2 C

3.9 C

0 W/m

0.00 mm

16:45

4.2 C

1029.3 hpa

68 %

8.0 km/h aus 117

17.7 km/h aus W

-1.2 C

1.9 C

2.2 C

3.9 C

0 W/m

0.00 mm

16:50

4.2 C

1029.3 hpa

68 %

9.7 km/h aus 117

16.1 km/h aus W

-1.2 C

1.4 C

1.8 C

3.8 C

0 W/m

0.00 mm

16:55

4.2 C

1029.3 hpa

68 %

8.0 km/h aus 117

16.1 km/h aus WSW

-1.2 C

1.8 C

2.2 C

3.8 C

0 W/m

0.00 mm

17:00

4.2 C

1029.3 hpa

68 %

6.4 km/h aus 117

14.5 km/h aus WSW

-1.2 C

2.3 C

2.6 C

3.8 C

0 W/m

0.00 mm

17:05

4.2 C

1029.3 hpa

68 %

6.4 km/h aus 117

14.5 km/h aus WSW

-1.2 C

2.3 C

2.6 C

3.8 C

0 W/m

0.00 mm

17:10

4.1 C

1029.3 hpa

69 %

4.8 km/h aus 116

12.9 km/h aus WSW

-1.1 C

2.8 C

3.2 C

3.8 C

0 W/m

0.00 mm

17:15

4.1 C

1029.4 hpa

69 %

6.4 km/h aus 117

14.5 km/h aus WSW

-1.1 C

2.2 C

2.6 C

3.8 C

0 W/m

0.00 mm

17:20

4.1 C

1029.4 hpa

69 %

8.0 km/h aus 117

14.5 km/h aus W

-1.1 C

1.8 C

2.1 C

3.8 C

0 W/m

0.00 mm

17:25

4.1 C

1029.4 hpa

69 %

4.8 km/h aus 117

14.5 km/h aus W

-1.1 C

2.8 C

3.1 C

3.7 C

0 W/m

0.00 mm

17:30

4.1 C

1029.5 hpa

69 %

3.2 km/h aus 117

9.7 km/h aus W

-1.1 C

3.6 C

3.9 C

3.7 C

0 W/m

0.00 mm

17:35

4.1 C

1029.5 hpa

69 %

3.2 km/h aus 116

6.4 km/h aus WSW

-1.1 C

3.6 C

3.9 C

3.7 C

0 W/m

0.00 mm

17:40

4.1 C

1029.5 hpa

70 %

4.8 km/h aus 114

9.7 km/h aus SW

-0.9 C

2.8 C

3.1 C

3.7 C

0 W/m

0.00 mm

17:45

4.1 C

1029.1 hpa

70 %

4.8 km/h aus 117

9.7 km/h aus SW

-0.9 C

2.8 C

3.1 C

3.7 C

0 W/m

0.00 mm

17:50

4.1 C

1029.1 hpa

70 %

3.2 km/h aus 117

6.4 km/h aus SW

-0.9 C

3.6 C

3.9 C

3.7 C

0 W/m

0.00 mm

17:55

4.1 C

1029.1 hpa

71 %

3.2 km/h aus 116

8.0 km/h aus SW

-0.7 C

3.6 C

3.9 C

3.7 C

0 W/m

0.00 mm

18:00

4.1 C

1028.9 hpa

71 %

3.2 km/h aus 117

6.4 km/h aus SW

-0.7 C

3.6 C

3.9 C

3.7 C

0 W/m

0.00 mm

18:05

4.1 C

1028.9 hpa

71 %

3.2 km/h aus 117

8.0 km/h aus SW

-0.7 C

3.6 C

3.9 C

3.7 C

0 W/m

0.00 mm

18:10

4.0 C

1028.9 hpa

71 %

4.8 km/h aus 118

9.7 km/h aus SW

-0.8 C

2.7 C

3.1 C

3.7 C

0 W/m

0.00 mm

18:15

4.0 C

1029.0 hpa

72 %

3.2 km/h aus 116

8.0 km/h aus SW

-0.6 C

3.6 C

3.8 C

3.7 C

0 W/m

0.00 mm

18:20

4.0 C

1029.0 hpa

72 %

1.6 km/h aus 117

6.4 km/h aus SW

-0.6 C

3.7 C

4.0 C

3.7 C

0 W/m

0.00 mm

18:25

4.0 C

1029.0 hpa

72 %

4.8 km/h aus 117

8.0 km/h aus SW

-0.6 C

2.8 C

3.1 C

3.7 C

0 W/m

0.00 mm

18:30

4.0 C

1029.2 hpa

72 %

4.8 km/h aus 117

9.7 km/h aus SW

-0.6 C

2.8 C

3.1 C

3.7 C

0 W/m

0.00 mm

18:35

4.0 C

1029.2 hpa

73 %

4.8 km/h aus 117

11.3 km/h aus SSW

-0.4 C

2.8 C

3.1 C

3.7 C

0 W/m

0.00 mm

18:40

4.0 C

1029.2 hpa

73 %

4.8 km/h aus 117

8.0 km/h aus SW

-0.4 C

2.8 C

3.1 C

3.7 C

0 W/m

0.00 mm

18:45

4.0 C

1029.1 hpa

73 %

6.4 km/h aus 117

9.7 km/h aus SSW

-0.4 C

2.2 C

2.4 C

3.7 C

0 W/m

0.00 mm

18:50

4.1 C

1029.1 hpa

74 %

4.8 km/h aus 115

11.3 km/h aus SSW

-0.2 C

2.8 C

3.1 C

3.8 C

0 W/m

0.00 mm

18:55

4.1 C

1029.1 hpa

74 %

6.4 km/h aus 117

11.3 km/h aus SSW

-0.2 C

2.2 C

2.5 C

3.8 C

0 W/m

0.00 mm

19:00

4.1 C

1029.2 hpa

74 %

4.8 km/h aus 117

9.7 km/h aus SW

-0.2 C

2.8 C

3.1 C

3.8 C

0 W/m

0.00 mm

19:05

4.1 C

1029.2 hpa

74 %

4.8 km/h aus 116

11.3 km/h aus SW

-0.2 C

2.8 C

3.1 C

3.8 C

0 W/m

0.00 mm

19:10

4.1 C

1029.2 hpa

74 %

4.8 km/h aus 115

11.3 km/h aus SW

-0.2 C

2.8 C

3.1 C

3.8 C

0 W/m

0.00 mm

19:15

4.1 C

1029.3 hpa

74 %

4.8 km/h aus 118

9.7 km/h aus SW

-0.2 C

2.8 C

3.1 C

3.8 C

0 W/m

0.00 mm

19:20

4.1 C

1029.3 hpa

74 %

6.4 km/h aus 116

16.1 km/h aus WSW

-0.1 C

2.3 C

2.6 C

3.8 C

0 W/m

0.00 mm

19:25

4.1 C

1029.3 hpa

74 %

6.4 km/h aus 117

11.3 km/h aus SW

-0.1 C

2.3 C

2.6 C

3.8 C

0 W/m

0.00 mm

19:30

4.1 C

1029.2 hpa

74 %

6.4 km/h aus 116

14.5 km/h aus SSW

-0.1 C

2.3 C

2.6 C

3.8 C

0 W/m

0.00 mm

19:35

4.1 C

1029.2 hpa

74 %

8.0 km/h aus 117

14.5 km/h aus SSW

-0.1 C

1.8 C

2.1 C

3.8 C

0 W/m

0.00 mm

19:40

4.1 C

1029.2 hpa

74 %

8.0 km/h aus 117

16.1 km/h aus WSW

-0.1 C

1.8 C

2.1 C

3.8 C

0 W/m

0.00 mm

19:45

4.1 C

1029.1 hpa

74 %

6.4 km/h aus 117

16.1 km/h aus WSW

-0.2 C

2.2 C

2.5 C

3.8 C

0 W/m

0.00 mm

19:50

4.1 C

1029.1 hpa

74 %

9.7 km/h aus 116

16.1 km/h aus WSW

-0.2 C

1.3 C

1.6 C

3.8 C

0 W/m

0.00 mm

19:55

4.1 C

1029.1 hpa

74 %

6.4 km/h aus 116

11.3 km/h aus WSW

-0.1 C

2.3 C

2.6 C

3.8 C

0 W/m

0.00 mm

20:00

4.1 C

1029.2 hpa

74 %

8.0 km/h aus 116

16.1 km/h aus SSW

-0.2 C

1.8 C

2.1 C

3.8 C

0 W/m

0.00 mm

20:05

4.1 C

1029.2 hpa

74 %

8.0 km/h aus 117

16.1 km/h aus SSW

-0.2 C

1.8 C

2.1 C

3.8 C

0 W/m

0.00 mm

20:10

4.1 C

1029.2 hpa

74 %

9.7 km/h aus 116

16.1 km/h aus WSW

-0.2 C

1.3 C

1.6 C

3.8 C

0 W/m

0.00 mm

20:15

4.1 C

1029.2 hpa

74 %

8.0 km/h aus 117

16.1 km/h aus WSW

-0.2 C

1.8 C

2.1 C

3.8 C

0 W/m

0.00 mm

20:20

4.1 C

1029.2 hpa

74 %

8.0 km/h aus 118

16.1 km/h aus SW

-0.2 C

1.8 C

2.1 C

3.8 C

0 W/m

0.00 mm

20:25

4.1 C

1029.2 hpa

74 %

9.7 km/h aus 115

19.3 km/h aus SSW

-0.2 C

1.3 C

1.6 C

3.8 C

0 W/m

0.00 mm

20:30

4.1 C

1029.1 hpa

74 %

8.0 km/h aus 116

16.1 km/h aus SSW

-0.2 C

1.8 C

2.1 C

3.8 C

0 W/m

0.00 mm

20:35

4.1 C

1029.1 hpa

74 %

9.7 km/h aus 116

19.3 km/h aus SW

-0.2 C

1.3 C

1.6 C

3.8 C

0 W/m

0.00 mm

20:40

4.1 C

1029.1 hpa

74 %

9.7 km/h aus 116

19.3 km/h aus W

-0.2 C

1.3 C

1.6 C

3.8 C

0 W/m

0.00 mm

20:45

4.1 C

1029.2 hpa

74 %

9.7 km/h aus 116

20.9 km/h aus SW

-0.2 C

1.3 C

1.6 C

3.8 C

0 W/m

0.00 mm

20:50

4.1 C

1029.2 hpa

74 %

8.0 km/h aus 116

19.3 km/h aus SW

-0.2 C

1.8 C

2.1 C

3.8 C

0 W/m

0.00 mm

20:55

4.1 C

1029.2 hpa

74 %

9.7 km/h aus 116

17.7 km/h aus SW

-0.2 C

1.3 C

1.6 C

3.8 C

0 W/m

0.00 mm

21:00

4.1 C

1029.2 hpa

74 %

8.0 km/h aus 116

17.7 km/h aus SSW

-0.2 C

1.8 C

2.1 C

3.8 C

0 W/m

0.00 mm

21:05

4.1 C

1029.2 hpa

74 %

6.4 km/h aus 117

14.5 km/h aus SW

-0.2 C

2.2 C

2.5 C

3.8 C

0 W/m

0.00 mm

21:10

4.1 C

1029.2 hpa

74 %

8.0 km/h aus 117

19.3 km/h aus SSW

-0.2 C

1.8 C

2.1 C

3.8 C

0 W/m

0.00 mm

21:15

4.1 C

1029.2 hpa

74 %

9.7 km/h aus 117

19.3 km/h aus SSW

-0.2 C

1.3 C

1.6 C

3.8 C

0 W/m

0.00 mm

21:20

4.1 C

1029.2 hpa

74 %

9.7 km/h aus 117

16.1 km/h aus SSW

-0.2 C

1.3 C

1.6 C

3.8 C

0 W/m

0.00 mm

21:25

4.1 C

1029.2 hpa

74 %

9.7 km/h aus 116

17.7 km/h aus S

-0.2 C

1.3 C

1.6 C

3.8 C

0 W/m

0.00 mm

21:30

4.1 C

1029.2 hpa

74 %

8.0 km/h aus 117

14.5 km/h aus SSW

-0.2 C

1.8 C

2.1 C

3.8 C

0 W/m

0.00 mm

21:35

4.0 C

1029.2 hpa

74 %

8.0 km/h aus 117

12.9 km/h aus SSW

-0.2 C

1.7 C

1.9 C

3.7 C

0 W/m

0.00 mm

21:40

4.0 C

1029.2 hpa

73 %

8.0 km/h aus 117

14.5 km/h aus SSW

-0.4 C

1.7 C

1.9 C

3.7 C

0 W/m

0.00 mm

21:45

3.9 C

1029.2 hpa

73 %

6.4 km/h aus 116

16.1 km/h aus SW

-0.5 C

2.1 C

2.4 C

3.7 C

0 W/m

0.00 mm

21:50

3.9 C

1029.2 hpa

74 %

8.0 km/h aus 117

16.1 km/h aus SW

-0.3 C

1.7 C

1.9 C

3.7 C

0 W/m

0.00 mm

21:55

3.9 C

1029.2 hpa

73 %

9.7 km/h aus 116

17.7 km/h aus SW

-0.5 C

1.2 C

1.5 C

3.7 C

0 W/m

0.00 mm

22:00

3.9 C

1029.2 hpa

73 %

8.0 km/h aus 116

14.5 km/h aus S

-0.5 C

1.6 C

1.9 C

3.7 C

0 W/m

0.00 mm

22:05

3.9 C

1029.2 hpa

73 %

8.0 km/h aus 117

17.7 km/h aus SW

-0.5 C

1.6 C

1.9 C

3.7 C

0 W/m

0.00 mm

22:10

4.0 C

1029.2 hpa

73 %

8.0 km/h aus 117

17.7 km/h aus SW

-0.4 C

1.7 C

1.9 C

3.7 C

0 W/m

0.00 mm

22:15

4.0 C

1029.2 hpa

73 %

9.7 km/h aus 117

17.7 km/h aus SSW

-0.4 C

1.3 C

1.6 C

3.7 C

0 W/m

0.00 mm

22:20

4.1 C

1029.2 hpa

72 %

9.7 km/h aus 116

19.3 km/h aus SSW

-0.5 C

1.3 C

1.6 C

3.8 C

0 W/m

0.00 mm

22:25

4.1 C

1029.2 hpa

72 %

9.7 km/h aus 118

17.7 km/h aus SSW

-0.5 C

1.3 C

1.6 C

3.8 C

0 W/m

0.00 mm

22:30

4.1 C

1029.1 hpa

72 %

8.0 km/h aus 116

17.7 km/h aus SW

-0.5 C

1.8 C

2.1 C

3.8 C

0 W/m

0.00 mm

22:35

4.1 C

1029.1 hpa

72 %

8.0 km/h aus 117

16.1 km/h aus SW

-0.5 C

1.8 C

2.1 C

3.8 C

0 W/m

0.00 mm

22:40

4.1 C

1029.1 hpa

72 %

8.0 km/h aus 116

17.7 km/h aus SW

-0.5 C

1.8 C

2.1 C

3.8 C

0 W/m

0.00 mm

22:45

4.1 C

1029.0 hpa

71 %

9.7 km/h aus 117

20.9 km/h aus SW

-0.7 C

1.3 C

1.6 C

3.7 C

0 W/m

0.00 mm

22:50

4.1 C

1029.0 hpa

71 %

6.4 km/h aus 117

17.7 km/h aus SW

-0.7 C

2.2 C

2.5 C

3.7 C

0 W/m

0.00 mm

22:55

4.1 C

1029.0 hpa

71 %

9.7 km/h aus 117

19.3 km/h aus SW

-0.7 C

1.3 C

1.6 C

3.7 C

0 W/m

0.00 mm

23:00

4.1 C

1028.9 hpa

71 %

9.7 km/h aus 116

19.3 km/h aus WSW

-0.7 C

1.3 C

1.6 C

3.7 C

0 W/m

0.00 mm

23:05

4.1 C

1028.9 hpa

70 %

9.7 km/h aus 117

20.9 km/h aus WSW

-0.9 C

1.3 C

1.6 C

3.7 C

0 W/m

0.00 mm

23:10

4.1 C

1028.9 hpa

70 %

9.7 km/h aus 117

19.3 km/h aus SW

-0.9 C

1.3 C

1.6 C

3.7 C

0 W/m

0.00 mm

23:15

4.0 C

1028.7 hpa

70 %

8.0 km/h aus 117

17.7 km/h aus SSW

-1.0 C

1.6 C

1.9 C

3.7 C

0 W/m

0.00 mm

23:20

4.0 C

1028.7 hpa

69 %

8.0 km/h aus 117

16.1 km/h aus WSW

-1.2 C

1.6 C

1.9 C

3.7 C

0 W/m

0.00 mm

23:25

3.9 C

1028.7 hpa

69 %

8.0 km/h aus 117

19.3 km/h aus SW

-1.2 C

1.6 C

1.9 C

3.6 C

0 W/m

0.00 mm

23:30

3.9 C

1028.7 hpa

69 %

8.0 km/h aus 118

17.7 km/h aus WSW

-1.2 C

1.6 C

1.9 C

3.6 C

0 W/m

0.00 mm

23:35

3.9 C

1028.7 hpa

69 %

8.0 km/h aus 117

16.1 km/h aus W

-1.3 C

1.5 C

1.8 C

3.6 C

0 W/m

0.00 mm

23:40

3.9 C

1028.7 hpa

69 %

8.0 km/h aus 116

16.1 km/h aus SW

-1.3 C

1.5 C

1.8 C

3.6 C

0 W/m

0.00 mm

23:45

3.8 C

1028.7 hpa

68 %

6.4 km/h aus 117

16.1 km/h aus WSW

-1.5 C

1.9 C

2.2 C

3.5 C

0 W/m

0.00 mm

23:50

3.9 C

1028.7 hpa

68 %

6.4 km/h aus 116

16.1 km/h aus SSW

-1.5 C

2.0 C

2.3 C

3.6 C

0 W/m

0.00 mm

23:55

3.9 C

1028.7 hpa

68 %

8.0 km/h aus 117

14.5 km/h aus SSW

-1.5 C

1.5 C

1.8 C

3.6 C

0 W/m

0.00 mm